Date,TemperatureHighF,TemperatureAvgF,TemperatureLowF,DewpointHighF,DewpointAvgF,DewpointLowF,HumidityHigh,HumidityAvg,HumidityLow,PressureMaxIn,PressureMinIn,WindSpeedMaxMPH,WindSpeedAvgMPH,GustSpeedMaxMPH,PrecipitationSumIn
2013-3-1,43,36,31,34,30,26,99,78,58,29.60,29.43,7,2,0,0.00
2013-3-2,43,36,32,29,27,26,80,71,55,29.60,29.52,7,2,0,0.00
2013-3-3,43,34,30,31,27,24,96,78,58,29.55,29.44,5,2,0,0.00
2013-3-4,40,32,26,26,23,20,81,69,53,29.66,29.50,11,5,0,0.00
2013-3-5,46,35,27,33,27,22,99,73,52,29.98,29.66,7,2,0,0.00
2013-3-6,39,35,32,36,33,30,99,93,75,30.00,29.93,10,3,0,0.09
2013-3-7,35,32,29,32,30,29,99,94,85,29.95,29.89,12,4,0,0.10
2013-3-8,36,31,29,33,29,24,99,92,71,30.05,29.83,6,1,0,0.00
2013-3-9,51,36,26,32,25,21,99,67,33,30.26,30.06,4,1,0,0.99
2013-3-10,53,35,24,33,29,24,99,82,46,30.33,30.22,4,1,0,0.01
2013-3-11,55,41,33,41,36,32,99,85,55,30.25,30.07,7,2,0,0.00
2013-3-12,55,47,39,52,46,38,99,98,86,30.08,29.64,7,2,0,0.40
2013-3-13,50,41,32,46,30,20,99,70,36,29.71,29.62,8,3,0,0.00
2013-3-14,33,29,21,24,15,6,77,56,41,29.76,29.62,12,4,0,0.00
2013-3-15,41,29,18,30,15,6,94,58,28,29.79,29.55,8,4,0,0.00
2013-3-16,45,33,25,28,16,10,90,53,27,29.77,29.60,7,2,0,0.00
2013-3-17,38,30,23,17,11,4,76,47,23,30.22,29.77,8,2,0,0.00
2013-3-18,39,27,15,26,9,0,90,50,23,30.38,30.13,5,1,0,0.00
2013-3-19,36,31,28,36,31,27,99,99,93,30.12,29.51,12,3,0,0.79
2013-3-20,39,30,23,28,21,17,99,72,46,29.73,29.60,10,3,0,0.10
2013-3-21,37,29,24,29,23,17,99,77,49,29.74,29.51,4,1,0,0.09
2013-3-22,39,31,24,24,19,15,85,62,42,29.67,29.52,10,4,0,0.08
2013-3-23,42,34,27,24,20,18,82,60,40,29.71,29.55,12,5,0,0.04
2013-3-24,52,37,29,26,23,19,75,59,35,29.75,29.63,8,3,0,0.00
2013-3-25,44,36,28,32,28,24,86,73,52,29.69,29.40,6,2,0,0.00
2013-3-26,50,39,32,30,25,20,81,60,35,29.70,29.44,6,2,0,0.00
2013-3-27,52,40,27,30,23,19,73,53,33,29.79,29.66,8,3,0,0.00
2013-3-28,50,41,34,36,32,29,99,73,45,29.94,29.78,7,2,0,0.01
2013-3-29,56,45,34,34,31,28,91,61,35,29.98,29.88,8,2,0,0.00
2013-3-30,58,46,33,32,24,16,85,47,21,30.02,29.91,8,2,0,0.00
2013-3-31,58,45,32,43,27,21,98,52,25,30.04,29.62,11,2,0,0.06